This demonstration page uses our WeatherBlox Daily Observations layout. Learn more.

Hourly Observations for July 18, 2019

Temp ( °F °C ) Dew Point ( °F °C ) Humidity (%) Winds ( mph kmh ) Pressure ( in mb ) Visibility ( mi km ) Precip ( " mm )
12:15 am 00:15 Partly Cloudy 73 23 73 23 100 100 Calm 29.91 1013 10 16.09344 0 0
12:35 am 00:35 Partly Cloudy 73 23 73 23 100 100 Calm 29.91 1013 10 16.09344 0 0
12:55 am 00:55 Partly Cloudy 73 23 73 23 100 100 Calm 29.91 1013 10 16.09344 0 0
1:15 am 01:15 Cloudy 73 23 73 23 100 100 Calm 29.91 1013 10 16.09344 0 0
1:35 am 01:35 Cloudy 73 23 73 23 100 100 S 3 6 29.91 1013 10 16.09344 0 0
1:55 am 01:55 Cloudy 73 23 73 23 100 100 S 3 6 29.91 1013 10 16.09344 0 0
2:14 am 02:14 Partly Cloudy 75 24 73 23 94 94 Calm 29.91 1013 10 16.09344 0 0
2:35 am 02:35 Partly Cloudy 75 24 73 23 94 94 Calm 29.88 1012 10 16.09344 0 0
2:55 am 02:55 Mostly Cloudy 73 23 73 23 100 100 Calm 29.88 1012 10 16.09344 0 0
3:15 am 03:15 Partly Cloudy 73 23 73 23 100 100 Calm 29.88 1012 10 16.09344 0 0
3:35 am 03:35 Clear 73 23 73 23 100 100 Calm 29.88 1012 10 16.09344 0 0
3:55 am 03:55 Mostly Cloudy 73 23 73 23 100 100 Calm 29.88 1012 10 16.09344 0 0
4:15 am 04:15 Mostly Cloudy 73 23 73 23 100 100 Calm 29.88 1012 10 16.09344 0 0
4:35 am 04:35 Cloudy 72 22 72 22 100 100 Calm 29.88 1012 10 16.09344 0 0
4:55 am 04:55 Cloudy 73 23 73 23 100 100 Calm 29.88 1012 10 16.09344 0 0
5:15 am 05:15 Cloudy 73 23 73 23 100 100 Calm 29.88 1012 10 16.09344 0 0
5:35 am 05:35 Cloudy 73 23 73 23 100 100 Calm 29.91 1013 10 16.09344 0 0
5:56 am 05:56 Cloudy 73 23 73 23 100 100 Calm 29.91 1013 10 16.09344 0 0
6:15 am 06:15 Cloudy 73 23 73 23 100 100 NW 3 6 29.91 1013 10 16.09344 0 0
6:35 am 06:35 Cloudy 73 23 73 23 100 100 Calm 29.91 1013 10 16.09344 0 0
6:55 am 06:55 Cloudy 73 23 73 23 100 100 WNW 3 6 29.91 1013 10 16.09344 0 0
7:14 am 07:14 Mostly Cloudy 75 24 73 23 94 94 Calm 29.91 1013 10 16.09344 0 0
7:35 am 07:35 Mostly Cloudy 75 24 73 23 94 94 Calm 29.91 1013 10 16.09344 0 0
7:55 am 07:55 Partly Cloudy 77 25 73 23 89 89 Calm 29.91 1013 10 16.09344 0 0
8:15 am 08:15 Partly Cloudy 79 26 73 23 84 84 WNW 5 7 29.91 1013 10 16.09344 0 0
8:35 am 08:35 Mostly Cloudy 81 27 73 23 79 79 W 7 11 29.91 1013 10 16.09344 0 0
8:55 am 08:55 Partly Cloudy 81 27 75 24 84 84 W 5 7 29.94 1014 10 16.09344 0 0
9:15 am 09:15 Mostly Cloudy 81 27 73 23 79 79 WNW 8 13 29.94 1014 10 16.09344 0 0
9:35 am 09:35 Mostly Cloudy 82 28 75 24 79 79 W 6 9 29.94 1014 10 16.09344 0 0
9:55 am 09:55 Partly Cloudy 84 29 75 24 74 74 WNW 15 24 29.91 1013 10 16.09344 0 0
10:15 am 10:15 Mostly Cloudy 84 29 75 24 74 74 W 10 17 29.94 1014 10 16.09344 0 0
10:35 am 10:35 Mostly Cloudy 84 29 75 24 74 74 WNW 9 15 29.91 1013 10 16.09344 0 0
10:55 am 10:55 Partly Cloudy 86 30 75 24 70 70 NW 8 13 29.88 1012 10 16.09344 0 0
11:15 am 11:15 Mostly Cloudy 86 30 75 24 70 70 NW 8 13 29.88 1012 10 16.09344 0 0
11:35 am 11:35 Mostly Cloudy 84 29 75 24 74 74 N 8 13 29.91 1013 10 16.09344 0 0
11:55 am 11:55 Mostly Cloudy 86 30 75 24 70 70 NNW 6 9 29.88 1012 10 16.09344 0 0
12:15 pm 12:15 Mostly Cloudy 86 30 75 24 70 70 WNW 9 15 29.88 1012 10 16.09344 0 0
12:36 pm 12:36 Mostly Cloudy 88 31 75 24 66 66 WNW 12 19 29.88 1012 10 16.09344 0 0
12:55 pm 12:55 Cloudy 88 31 77 25 70 70 NW 10 17 29.88 1012 10 16.09344 0 0
1:15 pm 13:15 Cloudy 86 30 75 24 70 70 WNW 9 15 29.88 1012 10 16.09344 0 0
1:35 pm 13:35 Cloudy 86 30 75 24 70 70 WNW 10 17 29.91 1013 10 16.09344 0 0
1:55 pm 13:55 Cloudy 84 29 75 24 74 74 W 10 17 29.94 1014 10 16.09344 0 0
2:15 pm 14:15 Cloudy 84 29 75 24 74 74 W 5 7 29.91 1013 10 16.09344 0 0
2:50 pm 14:50 Cloudy 86 30 73 23 66 66 N 8 13 29.88 1012 10 16.09344 0 0
3:35 pm 15:35 Cloudy 88 31 73 23 62 62 W 3 6 29.88 1012 10 16.09344 0 0
3:55 pm 15:55 Mostly Cloudy 88 31 75 24 66 66 NNW 5 7 29.88 1012 10 16.09344 0 0
4:15 pm 16:15 Partly Cloudy 90 32 73 23 59 59 WNW 10 17 29.85 1011 10 16.09344 0 0
4:35 pm 16:35 Partly Cloudy 90 32 75 24 63 63 NW 5 7 29.85 1011 10 16.09344 0 0
4:55 pm 16:55 Partly Cloudy 90 32 75 24 63 63 NNW 5 7 29.85 1011 10 16.09344 0 0
5:15 pm 17:15 Partly Cloudy 90 32 75 24 63 63 N 7 11 29.85 1011 10 16.09344 0 0
5:35 pm 17:35 Partly Cloudy 90 32 75 24 63 63 N 5 7 29.85 1011 10 16.09344 0 0
5:55 pm 17:55 Sunny 90 32 75 24 63 63 N 8 13 29.85 1011 10 16.09344 0 0
6:15 pm 18:15 Sunny 90 32 75 24 63 63 N 8 13 29.85 1011 10 16.09344 0 0
6:35 pm 18:35 Sunny 90 32 75 24 63 63 NNW 5 7 29.85 1011 10 16.09344 0 0
6:55 pm 18:55 Sunny 90 32 73 23 59 59 N 7 11 29.85 1011 10 16.09344 0 0
7:15 pm 19:15 Sunny 90 32 73 23 59 59 NNE 5 7 29.85 1011 10 16.09344 0 0
7:35 pm 19:35 Sunny 90 32 73 23 59 59 N 5 7 29.85 1011 10 16.09344 0 0
7:55 pm 19:55 Sunny 88 31 73 23 62 62 N 6 9 29.88 1012 10 16.09344 0 0
8:15 pm 20:15 Sunny 88 31 73 23 62 62 N 5 7 29.88 1012 10 16.09344 0 0
8:35 pm 20:35 Clear 88 31 73 23 62 62 Calm 29.88 1012 10 16.09344 0 0
8:55 pm 20:55 Clear with Nearby Thunderstorms 82 28 75 24 79 79 Calm 29.88 1012 10 16.09344 0 0
9:35 pm 21:35 Clear 82 28 77 25 84 84 SW 3 6 29.91 1013 10 16.09344 0 0
9:55 pm 21:55 Clear 79 26 77 25 94 94 Calm 29.91 1013 10 16.09344 0 0
10:15 pm 22:15 Clear 81 27 77 25 89 89 Calm 29.91 1013 10 16.09344 0 0
10:35 pm 22:35 Clear 79 26 77 25 94 94 Calm 29.91 1013 10 16.09344 0 0
10:55 pm 22:55 Clear 79 26 77 25 94 94 Calm 29.91 1013 10 16.09344 0 0
11:15 pm 23:15 Clear 79 26 77 25 94 94 Calm 29.91 1013 10 16.09344 0 0
11:35 pm 23:35 Clear 77 25 75 24 94 94 Calm 29.91 1013 10 16.09344 0 0
11:55 pm 23:55 Clear 77 25 75 24 94 94 NW 3 6 29.94 1014 10 16.09344 0 0

Powered by AerisWeather